Year,Month,Day,Hour,Minute,Value (Times are PST for temperature in C)
2015,12,04,00,00,7.60
2015,12,04,00,01,7.60
2015,12,04,00,02,7.60
2015,12,04,00,03,7.60
2015,12,04,00,04,7.60
2015,12,04,00,05,7.60
2015,12,04,00,06,7.60
2015,12,04,00,07,7.60
2015,12,04,00,08,7.60
2015,12,04,00,09,7.70
2015,12,04,00,10,7.70
2015,12,04,00,11,7.70
2015,12,04,00,12,7.80
2015,12,04,00,13,7.80
2015,12,04,00,14,7.90
2015,12,04,00,15,8.00
2015,12,04,00,16,8.00
2015,12,04,00,17,8.10
2015,12,04,00,18,8.10
2015,12,04,00,19,8.10
2015,12,04,00,20,8.20
2015,12,04,00,21,8.20
2015,12,04,00,22,8.20
2015,12,04,00,23,8.20
2015,12,04,00,24,8.20
2015,12,04,00,25,8.20
2015,12,04,00,26,8.10
2015,12,04,00,27,8.10
2015,12,04,00,28,8.00
2015,12,04,00,29,8.00
2015,12,04,00,30,8.00
2015,12,04,00,31,7.90
2015,12,04,00,32,7.90
2015,12,04,00,33,7.90
2015,12,04,00,34,7.90
2015,12,04,00,35,7.80
2015,12,04,00,36,7.80
2015,12,04,00,37,7.80
2015,12,04,00,38,7.70
2015,12,04,00,39,7.70
2015,12,04,00,40,7.70
2015,12,04,00,41,7.70
2015,12,04,00,42,7.70
2015,12,04,00,43,7.60
2015,12,04,00,44,7.60
2015,12,04,00,45,7.60
2015,12,04,00,46,7.60
2015,12,04,00,47,7.60
2015,12,04,00,48,7.60
2015,12,04,00,49,7.60
2015,12,04,00,50,7.60
2015,12,04,00,51,7.60
2015,12,04,00,52,7.60
2015,12,04,00,53,7.50
2015,12,04,00,54,7.50
2015,12,04,00,55,7.50
2015,12,04,00,56,7.50
2015,12,04,00,57,7.50
2015,12,04,00,58,7.50
2015,12,04,00,59,7.50
2015,12,04,01,00,7.50
2015,12,04,01,01,7.50
2015,12,04,01,02,7.60
2015,12,04,01,03,7.60
2015,12,04,01,04,7.70
2015,12,04,01,05,7.70
2015,12,04,01,06,7.80
2015,12,04,01,07,7.80
2015,12,04,01,08,7.90
2015,12,04,01,09,7.90
2015,12,04,01,10,8.00
2015,12,04,01,11,8.10
2015,12,04,01,12,8.20
2015,12,04,01,13,8.30
2015,12,04,01,14,8.40
2015,12,04,01,15,8.50
2015,12,04,01,16,8.70
2015,12,04,01,17,8.80
2015,12,04,01,18,8.90
2015,12,04,01,19,9.00
2015,12,04,01,20,9.10
2015,12,04,01,21,9.20
2015,12,04,01,22,9.30
2015,12,04,01,23,9.30
2015,12,04,01,24,9.30
2015,12,04,01,25,9.30
2015,12,04,01,26,9.40
2015,12,04,01,27,9.40
2015,12,04,01,28,9.40
2015,12,04,01,29,9.40
2015,12,04,01,30,9.40
2015,12,04,01,31,9.40
2015,12,04,01,32,9.40
2015,12,04,01,33,9.40
2015,12,04,01,34,9.40
2015,12,04,01,35,9.40
2015,12,04,01,36,9.40
2015,12,04,01,37,9.40
2015,12,04,01,38,9.40
2015,12,04,01,39,9.40
2015,12,04,01,40,9.50
2015,12,04,01,41,9.50
2015,12,04,01,42,9.60
2015,12,04,01,43,9.70
2015,12,04,01,44,9.70
2015,12,04,01,45,9.80
2015,12,04,01,46,9.80
2015,12,04,01,47,9.80
2015,12,04,01,48,9.90
2015,12,04,01,49,9.90
2015,12,04,01,50,9.90
2015,12,04,01,51,10.00
2015,12,04,01,52,10.00
2015,12,04,01,53,10.00
2015,12,04,01,54,10.00
2015,12,04,01,55,10.00
2015,12,04,01,56,10.00
2015,12,04,01,57,10.00
2015,12,04,01,58,10.00
2015,12,04,01,59,10.00
2015,12,04,02,00,10.10
2015,12,04,02,01,10.00
2015,12,04,02,02,10.00
2015,12,04,02,03,10.00
2015,12,04,02,04,10.00
2015,12,04,02,05,9.90
2015,12,04,02,06,9.90
2015,12,04,02,07,9.90
2015,12,04,02,08,9.90
2015,12,04,02,09,9.90
2015,12,04,02,10,9.90
2015,12,04,02,11,9.80
2015,12,04,02,12,9.80
2015,12,04,02,13,9.80
2015,12,04,02,14,9.70
2015,12,04,02,15,9.70
2015,12,04,02,16,9.60
2015,12,04,02,17,9.60
2015,12,04,02,18,9.60
2015,12,04,02,19,9.50
2015,12,04,02,20,9.50
2015,12,04,02,21,9.40
2015,12,04,02,22,9.40
2015,12,04,02,23,9.40
2015,12,04,02,24,9.30
2015,12,04,02,25,9.30
2015,12,04,02,26,9.30
2015,12,04,02,27,9.20
2015,12,04,02,28,9.20
2015,12,04,02,29,9.20
2015,12,04,02,30,9.20
2015,12,04,02,31,9.20
2015,12,04,02,32,9.20
2015,12,04,02,33,9.20
2015,12,04,02,34,9.10
2015,12,04,02,35,9.10
2015,12,04,02,36,9.10
2015,12,04,02,37,9.00
2015,12,04,02,38,9.00
2015,12,04,02,39,9.00
2015,12,04,02,40,8.90
2015,12,04,02,41,8.90
2015,12,04,02,42,8.80
2015,12,04,02,43,8.80
2015,12,04,02,44,8.80
2015,12,04,02,45,8.70
2015,12,04,02,46,8.70
2015,12,04,02,47,8.70
2015,12,04,02,48,8.60
2015,12,04,02,49,8.60
2015,12,04,02,50,8.60
2015,12,04,02,51,8.60
2015,12,04,02,52,8.60
2015,12,04,02,53,8.50
2015,12,04,02,54,8.50
2015,12,04,02,55,8.50
2015,12,04,02,56,8.40
2015,12,04,02,57,8.40
2015,12,04,02,58,8.40
2015,12,04,02,59,8.40
2015,12,04,03,00,8.40
2015,12,04,03,01,8.40
2015,12,04,03,02,8.50
2015,12,04,03,03,8.50
2015,12,04,03,04,8.60
2015,12,04,03,05,8.60
2015,12,04,03,06,8.60
2015,12,04,03,07,8.70
2015,12,04,03,08,8.70
2015,12,04,03,09,8.70
2015,12,04,03,10,8.70
2015,12,04,03,11,8.70
2015,12,04,03,12,8.80
2015,12,04,03,13,8.70
2015,12,04,03,14,8.70
2015,12,04,03,15,8.70
2015,12,04,03,16,8.70
2015,12,04,03,17,8.60
2015,12,04,03,18,8.60
2015,12,04,03,19,8.60
2015,12,04,03,20,8.60
2015,12,04,03,21,8.50
2015,12,04,03,22,8.50
2015,12,04,03,23,8.50
2015,12,04,03,24,8.40
2015,12,04,03,25,8.40
2015,12,04,03,26,8.40
2015,12,04,03,27,8.40
2015,12,04,03,28,8.40
2015,12,04,03,29,8.40
2015,12,04,03,30,8.30
2015,12,04,03,31,8.30
2015,12,04,03,32,8.30
2015,12,04,03,33,8.30
2015,12,04,03,34,8.30
2015,12,04,03,35,8.30
2015,12,04,03,36,8.20
2015,12,04,03,37,8.20
2015,12,04,03,38,8.20
2015,12,04,03,39,8.20
2015,12,04,03,40,8.20
2015,12,04,03,41,8.20
2015,12,04,03,42,8.20
2015,12,04,03,43,8.20
2015,12,04,03,44,8.20
2015,12,04,03,45,8.20
2015,12,04,03,46,8.20
2015,12,04,03,47,8.30
2015,12,04,03,48,8.30
2015,12,04,03,49,8.30
2015,12,04,03,50,8.30
2015,12,04,03,51,8.30
2015,12,04,03,52,8.30
2015,12,04,03,53,8.30
2015,12,04,03,54,8.30
2015,12,04,03,55,8.30
2015,12,04,03,56,8.30
2015,12,04,03,57,8.20
2015,12,04,03,58,8.20
2015,12,04,03,59,8.20
2015,12,04,04,00,8.10
2015,12,04,04,01,8.10
2015,12,04,04,02,8.00
2015,12,04,04,03,8.00
2015,12,04,04,04,7.90
2015,12,04,04,05,7.90
2015,12,04,04,06,7.80
2015,12,04,04,07,7.80
2015,12,04,04,08,7.80
2015,12,04,04,09,7.80
2015,12,04,04,10,7.80
2015,12,04,04,11,7.90
2015,12,04,04,12,8.00
2015,12,04,04,13,8.00
2015,12,04,04,14,8.10
2015,12,04,04,15,8.20
2015,12,04,04,16,8.30
2015,12,04,04,17,8.40
2015,12,04,04,18,8.50
2015,12,04,04,19,8.60
2015,12,04,04,20,8.60
2015,12,04,04,21,8.70
2015,12,04,04,22,8.70
2015,12,04,04,23,8.70
2015,12,04,04,24,8.70
2015,12,04,04,25,8.70
2015,12,04,04,26,8.80
2015,12,04,04,27,8.70
2015,12,04,04,28,8.70
2015,12,04,04,29,8.70
2015,12,04,04,30,8.70
2015,12,04,04,31,8.80
2015,12,04,04,32,8.80
2015,12,04,04,33,8.80
2015,12,04,04,34,8.80
2015,12,04,04,35,8.80
2015,12,04,04,36,8.80
2015,12,04,04,37,8.70
2015,12,04,04,38,8.70
2015,12,04,04,39,8.70
2015,12,04,04,40,8.70
2015,12,04,04,41,8.70
2015,12,04,04,42,8.70
2015,12,04,04,43,8.70
2015,12,04,04,44,8.70
2015,12,04,04,45,8.70
2015,12,04,04,46,8.70
2015,12,04,04,47,8.70
2015,12,04,04,48,8.70
2015,12,04,04,49,8.70
2015,12,04,04,50,8.60
2015,12,04,04,51,8.60
2015,12,04,04,52,8.60
2015,12,04,04,53,8.50
2015,12,04,04,54,8.50
2015,12,04,04,55,8.40
2015,12,04,04,56,8.40
2015,12,04,04,57,8.30
2015,12,04,04,58,8.30
2015,12,04,04,59,8.30
2015,12,04,05,00,8.30
2015,12,04,05,01,8.20
2015,12,04,05,02,8.20
2015,12,04,05,03,8.20
2015,12,04,05,04,8.20
2015,12,04,05,05,8.20
2015,12,04,05,06,8.20
2015,12,04,05,07,8.20
2015,12,04,05,08,8.20
2015,12,04,05,09,8.20
2015,12,04,05,10,8.10
2015,12,04,05,11,8.10
2015,12,04,05,12,8.10
2015,12,04,05,13,8.10
2015,12,04,05,14,8.00
2015,12,04,05,15,8.00
2015,12,04,05,16,8.00
2015,12,04,05,17,8.00
2015,12,04,05,18,7.90
2015,12,04,05,19,7.90
2015,12,04,05,20,7.90
2015,12,04,05,21,7.90
2015,12,04,05,22,7.90
2015,12,04,05,23,7.80
2015,12,04,05,24,7.80
2015,12,04,05,25,7.80
2015,12,04,05,26,7.70
2015,12,04,05,27,7.70
2015,12,04,05,28,7.70
2015,12,04,05,29,7.70
2015,12,04,05,30,7.70
2015,12,04,05,31,7.60
2015,12,04,05,32,7.60
2015,12,04,05,33,7.60
2015,12,04,05,34,7.50
2015,12,04,05,35,7.50
2015,12,04,05,36,7.40
2015,12,04,05,37,7.40
2015,12,04,05,38,7.30
2015,12,04,05,39,7.30
2015,12,04,05,40,7.30
2015,12,04,05,41,7.30
2015,12,04,05,42,7.30
2015,12,04,05,43,7.30
2015,12,04,05,44,7.30
2015,12,04,05,45,7.30
2015,12,04,05,46,7.30
2015,12,04,05,47,7.40
2015,12,04,05,48,7.40
2015,12,04,05,49,7.40
2015,12,04,05,50,7.40
2015,12,04,05,51,7.40
2015,12,04,05,52,7.40
2015,12,04,05,53,7.40
2015,12,04,05,54,7.50
2015,12,04,05,55,7.50
2015,12,04,05,56,7.60
2015,12,04,05,57,7.70
2015,12,04,05,58,7.80
2015,12,04,05,59,8.00
2015,12,04,06,00,8.20
2015,12,04,06,01,8.20
2015,12,04,06,02,8.30
2015,12,04,06,03,8.30
2015,12,04,06,04,8.40
2015,12,04,06,05,8.40
2015,12,04,06,06,8.40
2015,12,04,06,07,8.40
2015,12,04,06,08,8.50
2015,12,04,06,09,8.50
2015,12,04,06,10,8.50
2015,12,04,06,11,8.50
2015,12,04,06,12,8.40
2015,12,04,06,13,8.40
2015,12,04,06,14,8.40
2015,12,04,06,15,8.40
2015,12,04,06,16,8.40
2015,12,04,06,17,8.40
2015,12,04,06,18,8.40
2015,12,04,06,19,8.40
2015,12,04,06,20,8.40
2015,12,04,06,21,8.40
2015,12,04,06,22,8.30
2015,12,04,06,23,8.30
2015,12,04,06,24,8.30
2015,12,04,06,25,8.30
2015,12,04,06,26,8.30
2015,12,04,06,27,8.30
2015,12,04,06,28,8.30
2015,12,04,06,29,8.40
2015,12,04,06,30,8.40
2015,12,04,06,31,8.40
2015,12,04,06,32,8.40
2015,12,04,06,33,8.40
2015,12,04,06,34,8.50
2015,12,04,06,35,8.60
2015,12,04,06,36,8.60
2015,12,04,06,37,8.60
2015,12,04,06,38,8.60
2015,12,04,06,39,8.60
2015,12,04,06,40,8.60
2015,12,04,06,41,8.60
2015,12,04,06,42,8.50
2015,12,04,06,43,8.50
2015,12,04,06,44,8.40
2015,12,04,06,45,8.40
2015,12,04,06,46,8.40
2015,12,04,06,47,8.40
2015,12,04,06,48,8.40
2015,12,04,06,49,8.40
2015,12,04,06,50,8.40
2015,12,04,06,51,8.40
2015,12,04,06,52,8.40
2015,12,04,06,53,8.40
2015,12,04,06,54,8.50
2015,12,04,06,55,8.50
2015,12,04,06,56,8.50
2015,12,04,06,57,8.60
2015,12,04,06,58,8.60
2015,12,04,06,59,8.70
2015,12,04,07,00,8.70
2015,12,04,07,01,8.70
2015,12,04,07,02,8.70
2015,12,04,07,03,8.60
2015,12,04,07,04,8.60
2015,12,04,07,05,8.50
2015,12,04,07,06,8.50
2015,12,04,07,07,8.40
2015,12,04,07,08,8.40
2015,12,04,07,09,8.40
2015,12,04,07,10,8.40
2015,12,04,07,11,8.40
2015,12,04,07,12,8.40
2015,12,04,07,13,8.40
2015,12,04,07,14,8.40
2015,12,04,07,15,8.40
2015,12,04,07,16,8.50
2015,12,04,07,17,8.50
2015,12,04,07,18,8.50
2015,12,04,07,19,8.50
2015,12,04,07,20,8.50
2015,12,04,07,21,8.50
2015,12,04,07,22,8.50
2015,12,04,07,23,8.40
2015,12,04,07,24,8.40
2015,12,04,07,25,8.40
2015,12,04,07,26,8.40
2015,12,04,07,27,8.30
2015,12,04,07,28,8.30
2015,12,04,07,29,8.30
2015,12,04,07,30,8.30
2015,12,04,07,31,8.30
2015,12,04,07,32,8.30
2015,12,04,07,33,8.30
2015,12,04,07,34,8.30
2015,12,04,07,35,8.40
2015,12,04,07,36,8.40
2015,12,04,07,37,8.40
2015,12,04,07,38,8.40
2015,12,04,07,39,8.40
2015,12,04,07,40,8.40
2015,12,04,07,41,8.40
2015,12,04,07,42,8.40
2015,12,04,07,43,8.30
2015,12,04,07,44,8.30
2015,12,04,07,45,8.20
2015,12,04,07,46,8.20
2015,12,04,07,47,8.10
2015,12,04,07,48,8.00
2015,12,04,07,49,8.00
2015,12,04,07,50,8.00
2015,12,04,07,51,8.00
2015,12,04,07,52,8.00
2015,12,04,07,53,8.10
2015,12,04,07,54,8.10
2015,12,04,07,55,8.20
2015,12,04,07,56,8.30
2015,12,04,07,57,8.40
2015,12,04,07,58,8.50
2015,12,04,07,59,8.50
2015,12,04,08,00,8.60
2015,12,04,08,01,8.60
2015,12,04,08,02,8.70
2015,12,04,08,03,8.70
2015,12,04,08,04,8.80
2015,12,04,08,05,8.80
2015,12,04,08,06,8.80
2015,12,04,08,07,8.80
2015,12,04,08,08,8.80
2015,12,04,08,09,8.80
2015,12,04,08,10,8.80
2015,12,04,08,11,8.70
2015,12,04,08,12,8.70
2015,12,04,08,13,8.70
2015,12,04,08,14,8.70
2015,12,04,08,15,8.70
2015,12,04,08,16,8.70
2015,12,04,08,17,8.70
2015,12,04,08,18,8.70
2015,12,04,08,19,8.70
2015,12,04,08,20,8.70
2015,12,04,08,21,8.70
2015,12,04,08,22,8.70
2015,12,04,08,23,8.70
2015,12,04,08,24,8.70
2015,12,04,08,25,8.70
2015,12,04,08,26,8.70
2015,12,04,08,27,8.70
2015,12,04,08,28,8.60
2015,12,04,08,29,8.60
2015,12,04,08,30,8.60
2015,12,04,08,31,8.60
2015,12,04,08,32,8.60
2015,12,04,08,33,8.60
2015,12,04,08,34,8.60
2015,12,04,08,35,8.60
2015,12,04,08,36,8.50
2015,12,04,08,37,8.50
2015,12,04,08,38,8.50
2015,12,04,08,39,8.50
2015,12,04,08,40,8.50
2015,12,04,08,41,8.50
2015,12,04,08,42,8.50
2015,12,04,08,43,8.50
2015,12,04,08,44,8.40
2015,12,04,08,45,8.40
2015,12,04,08,46,8.40
2015,12,04,08,47,8.40
2015,12,04,08,48,8.40
2015,12,04,08,49,8.30
2015,12,04,08,50,8.30
2015,12,04,08,51,8.30
2015,12,04,08,52,8.30
2015,12,04,08,53,8.20
2015,12,04,08,54,8.20
2015,12,04,08,55,8.20
2015,12,04,08,56,8.20
2015,12,04,08,57,8.20
2015,12,04,08,58,8.20
2015,12,04,08,59,8.20
2015,12,04,09,00,8.20
2015,12,04,09,01,8.20
2015,12,04,09,02,8.20
2015,12,04,09,03,8.20
2015,12,04,09,04,8.20
2015,12,04,09,05,8.20
2015,12,04,09,06,8.20
2015,12,04,09,07,8.10
2015,12,04,09,08,8.10
2015,12,04,09,09,8.10
2015,12,04,09,10,8.20
2015,12,04,09,11,8.10
2015,12,04,09,12,8.20
2015,12,04,09,13,8.20
2015,12,04,09,14,8.10
2015,12,04,09,15,8.20
2015,12,04,09,16,8.20
2015,12,04,09,17,8.20
2015,12,04,09,18,8.20
2015,12,04,09,19,8.20
2015,12,04,09,20,8.20
2015,12,04,09,21,8.20
2015,12,04,09,22,8.30
2015,12,04,09,23,8.20
2015,12,04,09,24,8.20
2015,12,04,09,25,8.20
2015,12,04,09,26,8.20
2015,12,04,09,27,8.20
2015,12,04,09,28,8.10
2015,12,04,09,29,8.10
2015,12,04,09,30,8.10
2015,12,04,09,31,8.10
2015,12,04,09,32,8.00
2015,12,04,09,33,8.00
2015,12,04,09,34,7.90
2015,12,04,09,35,7.90
2015,12,04,09,36,7.90
2015,12,04,09,37,7.90
2015,12,04,09,38,7.90
2015,12,04,09,39,8.00
2015,12,04,09,40,7.90
2015,12,04,09,41,7.90
2015,12,04,09,42,7.90
2015,12,04,09,43,7.90
2015,12,04,09,44,7.90
2015,12,04,09,45,7.90
2015,12,04,09,46,7.90
2015,12,04,09,47,7.90
2015,12,04,09,48,7.80
2015,12,04,09,49,7.80
2015,12,04,09,50,7.80
2015,12,04,09,51,7.80
2015,12,04,09,52,7.80
2015,12,04,09,53,7.80
2015,12,04,09,54,7.80
2015,12,04,09,55,7.80
2015,12,04,09,56,7.70
2015,12,04,09,57,7.70
2015,12,04,09,58,7.70
2015,12,04,09,59,7.70
2015,12,04,10,00,7.70
2015,12,04,10,01,7.70
2015,12,04,10,02,7.70
2015,12,04,10,03,7.60
2015,12,04,10,04,7.60
2015,12,04,10,05,7.60
2015,12,04,10,06,7.60
2015,12,04,10,07,7.70
2015,12,04,10,08,7.70
2015,12,04,10,09,7.70
2015,12,04,10,10,7.70
2015,12,04,10,11,7.70
2015,12,04,10,12,7.80
2015,12,04,10,13,7.80
2015,12,04,10,14,7.80
2015,12,04,10,15,7.80
2015,12,04,10,16,7.80
2015,12,04,10,17,7.80
2015,12,04,10,18,7.90
2015,12,04,10,19,7.90
2015,12,04,10,20,8.00
2015,12,04,10,21,8.00
2015,12,04,10,22,8.10
2015,12,04,10,23,8.20
2015,12,04,10,24,8.30
2015,12,04,10,25,8.30
2015,12,04,10,26,8.30
2015,12,04,10,27,8.30
2015,12,04,10,28,8.30
2015,12,04,10,29,8.30
2015,12,04,10,30,8.30
2015,12,04,10,31,8.30
2015,12,04,10,32,8.30
2015,12,04,10,33,8.30
2015,12,04,10,34,8.30
2015,12,04,10,35,8.30
2015,12,04,10,36,8.30
2015,12,04,10,52,8.60
2015,12,04,10,53,8.60
2015,12,04,10,54,8.60
2015,12,04,10,55,8.60
2015,12,04,10,56,8.60
2015,12,04,10,57,8.60
2015,12,04,10,58,8.50
2015,12,04,10,59,8.50
2015,12,04,11,00,8.50
2015,12,04,11,01,8.40
2015,12,04,11,02,8.40
2015,12,04,11,03,8.40
2015,12,04,11,04,8.40
2015,12,04,11,05,8.40
2015,12,04,11,06,8.40
2015,12,04,11,07,8.40
2015,12,04,11,08,8.40
2015,12,04,11,09,8.40
2015,12,04,11,10,8.40
2015,12,04,11,11,8.40
2015,12,04,11,12,8.40
2015,12,04,11,13,8.40
2015,12,04,11,14,8.40
2015,12,04,11,15,8.40
2015,12,04,11,16,8.40
2015,12,04,11,17,8.30
2015,12,04,11,18,8.30
2015,12,04,11,19,8.30
2015,12,04,11,20,8.40
2015,12,04,11,21,8.40
2015,12,04,11,22,8.40
2015,12,04,11,23,8.40
2015,12,04,11,24,8.40
2015,12,04,11,25,8.40
2015,12,04,11,26,8.40
2015,12,04,11,27,8.40
2015,12,04,11,28,8.40
2015,12,04,11,29,8.40
2015,12,04,11,30,8.50
2015,12,04,11,31,8.50
2015,12,04,11,32,8.50
2015,12,04,11,33,8.50
2015,12,04,11,34,8.50
2015,12,04,11,35,8.50
2015,12,04,11,36,8.50
2015,12,04,11,37,8.50
2015,12,04,11,38,8.50
2015,12,04,11,39,8.50
2015,12,04,11,40,8.50
2015,12,04,11,41,8.50
2015,12,04,11,42,8.50
2015,12,04,11,43,8.50
2015,12,04,11,44,8.60
2015,12,04,11,45,8.60
2015,12,04,11,46,8.60
2015,12,04,11,47,8.60
2015,12,04,11,48,8.60
2015,12,04,11,49,8.60
2015,12,04,11,50,8.70
2015,12,04,11,51,8.70
2015,12,04,11,52,8.70
2015,12,04,11,53,8.70
2015,12,04,11,54,8.80
2015,12,04,11,55,8.80
2015,12,04,11,56,8.80
2015,12,04,11,57,8.80
2015,12,04,11,58,8.80
2015,12,04,11,59,8.80
2015,12,04,12,00,8.80
2015,12,04,12,01,8.90
2015,12,04,12,02,8.90
2015,12,04,12,03,8.90
2015,12,04,12,04,8.90
2015,12,04,12,05,8.90
2015,12,04,12,06,8.90
2015,12,04,12,07,8.90
2015,12,04,12,08,8.90
2015,12,04,12,09,9.00
2015,12,04,12,10,9.00
2015,12,04,12,11,9.00
2015,12,04,12,12,9.10
2015,12,04,12,13,9.10
2015,12,04,12,14,9.10
2015,12,04,12,15,9.10
2015,12,04,12,16,9.20
2015,12,04,12,17,9.20
2015,12,04,12,18,9.20
2015,12,04,12,19,9.30
2015,12,04,12,20,9.30
2015,12,04,12,21,9.40
2015,12,04,12,22,9.40
2015,12,04,12,23,9.50
2015,12,04,12,24,9.60
2015,12,04,12,25,9.60
2015,12,04,12,26,9.70
2015,12,04,12,27,9.80
2015,12,04,12,28,9.80
2015,12,04,12,29,9.90
2015,12,04,12,30,9.90
2015,12,04,12,31,9.90
2015,12,04,12,32,9.90
2015,12,04,12,33,10.00
2015,12,04,12,34,10.10
2015,12,04,12,35,10.10
2015,12,04,12,36,10.10
2015,12,04,12,37,10.20
2015,12,04,12,38,10.20
2015,12,04,12,39,10.20
2015,12,04,12,40,10.20
2015,12,04,12,41,10.20
2015,12,04,12,42,10.20
2015,12,04,12,43,10.20
2015,12,04,12,44,10.20
2015,12,04,12,45,10.20
2015,12,04,12,46,10.20
2015,12,04,12,47,10.20
2015,12,04,12,48,10.30
2015,12,04,12,49,10.30
2015,12,04,12,50,10.30
2015,12,04,12,51,10.30
2015,12,04,12,52,10.30
2015,12,04,12,53,10.30
2015,12,04,12,54,10.30
2015,12,04,12,55,10.30
2015,12,04,12,56,10.30
2015,12,04,12,57,10.30
2015,12,04,12,58,10.20
2015,12,04,12,59,10.20
2015,12,04,13,00,10.20
2015,12,04,13,01,10.20
2015,12,04,13,02,10.20
2015,12,04,13,03,10.20
2015,12,04,13,04,10.10
2015,12,04,13,05,10.10
2015,12,04,13,06,10.10
2015,12,04,13,07,10.10
2015,12,04,13,08,10.10
2015,12,04,13,09,10.10
2015,12,04,13,10,10.10
2015,12,04,13,11,10.10
2015,12,04,13,12,10.10
2015,12,04,13,13,10.10
2015,12,04,13,14,10.10
2015,12,04,13,15,10.00
2015,12,04,13,16,10.00
2015,12,04,13,17,10.00
2015,12,04,13,18,10.00
2015,12,04,13,19,10.00
2015,12,04,13,20,10.00
2015,12,04,13,21,10.00
2015,12,04,13,22,10.00
2015,12,04,13,23,10.00
2015,12,04,13,24,10.00
2015,12,04,13,25,9.90
2015,12,04,13,26,9.90
2015,12,04,13,27,9.90
2015,12,04,13,28,9.90
2015,12,04,13,29,9.90
2015,12,04,13,30,9.80
2015,12,04,13,31,9.80
2015,12,04,13,32,9.80
2015,12,04,13,33,9.80
2015,12,04,13,34,9.70
2015,12,04,13,35,9.70
2015,12,04,13,36,9.70
2015,12,04,13,37,9.60
2015,12,04,13,38,9.50
2015,12,04,13,39,9.50
2015,12,04,13,40,9.40
2015,12,04,13,41,9.40
2015,12,04,13,42,9.30
2015,12,04,13,43,9.30
2015,12,04,13,44,9.20
2015,12,04,13,45,9.20
2015,12,04,13,46,9.20
2015,12,04,13,47,9.10
2015,12,04,13,48,9.10
2015,12,04,13,49,9.00
2015,12,04,13,50,8.90
2015,12,04,13,51,8.90
2015,12,04,13,52,8.90
2015,12,04,13,53,8.80
2015,12,04,13,54,8.80
2015,12,04,13,55,8.80
2015,12,04,13,56,8.80
2015,12,04,13,57,8.80
2015,12,04,13,58,8.80
2015,12,04,13,59,8.80
2015,12,04,14,00,8.70
2015,12,04,14,01,8.70
2015,12,04,14,02,8.70
2015,12,04,14,03,8.80
2015,12,04,14,04,8.80
2015,12,04,14,05,8.80
2015,12,04,14,06,8.80
2015,12,04,14,07,8.80
2015,12,04,14,08,8.80
2015,12,04,14,09,8.80
2015,12,04,14,10,8.80
2015,12,04,14,11,8.80
2015,12,04,14,12,8.80
2015,12,04,14,13,8.80
2015,12,04,14,14,8.80
2015,12,04,14,15,8.80
2015,12,04,14,16,8.80
2015,12,04,14,17,8.80
2015,12,04,14,18,8.80
2015,12,04,15,42,8.10
2015,12,04,15,43,8.10
2015,12,04,15,44,8.10
2015,12,04,15,45,8.10
2015,12,04,15,46,8.10
2015,12,04,15,47,8.10
2015,12,04,15,48,8.10
2015,12,04,15,49,8.10
2015,12,04,15,50,8.10
2015,12,04,15,51,8.10
2015,12,04,15,52,8.20
2015,12,04,15,53,8.20
2015,12,04,15,54,8.20
2015,12,04,15,55,8.20
2015,12,04,15,56,8.20
2015,12,04,15,57,8.20
2015,12,04,15,58,8.20
2015,12,04,15,59,8.10
2015,12,04,16,00,8.10
2015,12,04,16,01,8.10
2015,12,04,16,02,8.10
2015,12,04,16,03,8.10
2015,12,04,16,04,8.10
2015,12,04,16,05,8.10
2015,12,04,16,06,8.10
2015,12,04,16,07,8.10
2015,12,04,16,08,8.10
2015,12,04,16,09,8.10
2015,12,04,16,10,8.10
2015,12,04,16,11,8.10
2015,12,04,16,12,8.10
2015,12,04,16,13,8.00
2015,12,04,16,14,8.00
2015,12,04,16,15,8.00
2015,12,04,16,16,8.00
2015,12,04,16,17,8.00
2015,12,04,16,18,7.90
2015,12,04,16,19,7.90
2015,12,04,16,20,7.90
2015,12,04,16,21,7.90
2015,12,04,16,22,7.90
2015,12,04,16,23,7.90
2015,12,04,16,24,7.90
2015,12,04,16,25,7.90
2015,12,04,16,26,7.80
2015,12,04,16,27,7.80
2015,12,04,16,28,7.80
2015,12,04,16,29,7.80
2015,12,04,16,30,7.70
2015,12,04,16,31,7.70
2015,12,04,16,32,7.70
2015,12,04,16,33,7.70
2015,12,04,16,34,7.60
2015,12,04,16,35,7.60
2015,12,04,16,36,7.60
2015,12,04,16,37,7.60
2015,12,04,16,38,7.60
2015,12,04,16,39,7.60
2015,12,04,16,40,7.60
2015,12,04,16,41,7.50
2015,12,04,16,42,7.50
2015,12,04,16,43,7.40
2015,12,04,16,44,7.40
2015,12,04,16,45,7.40
2015,12,04,16,46,7.40
2015,12,04,16,47,7.40
2015,12,04,16,48,7.40
2015,12,04,16,49,7.40
2015,12,04,16,50,7.40
2015,12,04,16,51,7.40
2015,12,04,16,52,7.40
2015,12,04,16,53,7.50
2015,12,04,16,54,7.50
2015,12,04,16,55,7.60
2015,12,04,16,56,7.60
2015,12,04,16,57,7.60
2015,12,04,16,58,7.70
2015,12,04,16,59,7.70
2015,12,04,17,00,7.70
2015,12,04,17,01,7.70
2015,12,04,17,02,7.80
2015,12,04,17,03,7.80
2015,12,04,17,04,7.80
2015,12,04,17,05,7.80
2015,12,04,17,06,7.80
2015,12,04,17,07,7.90
2015,12,04,17,08,7.90
2015,12,04,17,09,7.90
2015,12,04,17,10,7.90
2015,12,04,17,11,7.80
2015,12,04,17,12,7.80
2015,12,04,17,13,7.80
2015,12,04,17,14,7.80
2015,12,04,17,15,7.80
2015,12,04,17,16,7.80
2015,12,04,17,17,7.80
2015,12,04,17,18,7.80
2015,12,04,17,19,7.80
2015,12,04,17,20,7.80
2015,12,04,17,21,7.80
2015,12,04,17,22,7.80
2015,12,04,17,23,7.70
2015,12,04,17,24,7.70
2015,12,04,17,25,7.70
2015,12,04,17,26,7.70
2015,12,04,17,27,7.70
2015,12,04,17,28,7.70
2015,12,04,17,29,7.70
2015,12,04,17,30,7.60
2015,12,04,17,31,7.60
2015,12,04,17,32,7.60
2015,12,04,17,33,7.50
2015,12,04,17,34,7.50
2015,12,04,17,35,7.50
2015,12,04,17,36,7.40
2015,12,04,17,37,7.40
2015,12,04,17,38,7.40
2015,12,04,17,39,7.30
2015,12,04,17,40,7.30
2015,12,04,17,41,7.30
2015,12,04,17,42,7.20
2015,12,04,17,43,7.20
2015,12,04,17,44,7.20
2015,12,04,17,45,7.10
2015,12,04,17,46,7.10
2015,12,04,17,47,7.10
2015,12,04,17,48,7.00
2015,12,04,17,49,6.90
2015,12,04,17,50,6.90
2015,12,04,17,51,6.90
2015,12,04,17,52,6.90
2015,12,04,17,53,6.90
2015,12,04,17,54,6.90
2015,12,04,17,55,6.90
2015,12,04,17,56,6.90
2015,12,04,17,57,6.90
2015,12,04,17,58,6.90
2015,12,04,17,59,7.00
2015,12,04,18,00,7.00
2015,12,04,18,01,7.00
2015,12,04,18,02,7.00
2015,12,04,18,03,7.00
2015,12,04,18,04,7.00
2015,12,04,18,05,7.00
2015,12,04,18,06,7.00
2015,12,04,18,07,7.00
2015,12,04,18,08,7.00
2015,12,04,18,09,6.90
2015,12,04,18,10,6.90
2015,12,04,18,11,6.90
2015,12,04,18,12,6.90
2015,12,04,18,13,6.90
2015,12,04,18,14,6.90
2015,12,04,18,15,6.90
2015,12,04,18,16,6.90
2015,12,04,18,17,6.90
2015,12,04,18,18,6.90
2015,12,04,18,19,6.90
2015,12,04,18,20,6.90
2015,12,04,18,21,6.90
2015,12,04,18,22,6.90
2015,12,04,18,23,6.90
2015,12,04,18,24,6.90
2015,12,04,18,25,6.90
2015,12,04,18,26,6.90
2015,12,04,18,27,7.00
2015,12,04,18,28,7.00
2015,12,04,18,29,7.00
2015,12,04,18,30,7.00
2015,12,04,18,31,7.00
2015,12,04,18,32,7.00
2015,12,04,18,33,7.00
2015,12,04,18,34,7.00
2015,12,04,18,35,7.00
2015,12,04,18,36,7.00
2015,12,04,18,37,7.00
2015,12,04,18,38,7.00
2015,12,04,18,39,7.10
2015,12,04,18,40,7.10
2015,12,04,18,41,7.10
2015,12,04,18,42,7.00
2015,12,04,18,43,7.00
2015,12,04,18,44,7.10
2015,12,04,18,45,7.00
2015,12,04,18,46,7.10
2015,12,04,18,47,7.00
2015,12,04,18,48,7.00
2015,12,04,18,49,7.00
2015,12,04,18,50,7.00
2015,12,04,18,51,7.00
2015,12,04,18,52,7.00
2015,12,04,18,53,6.90
2015,12,04,18,54,6.90
2015,12,04,18,55,7.00
2015,12,04,18,56,7.00
2015,12,04,18,57,7.00
2015,12,04,18,58,7.00
2015,12,04,18,59,7.00
2015,12,04,19,00,7.00
2015,12,04,19,01,7.00
2015,12,04,19,02,7.00
2015,12,04,19,03,7.00
2015,12,04,19,04,7.00
2015,12,04,19,05,7.00
2015,12,04,19,06,7.00
2015,12,04,19,07,7.00
2015,12,04,19,08,7.00
2015,12,04,19,09,7.00
2015,12,04,19,10,7.00
2015,12,04,19,11,7.00
2015,12,04,19,12,7.00
2015,12,04,19,13,6.90
2015,12,04,19,14,6.90
2015,12,04,19,15,6.90
2015,12,04,19,16,6.90
2015,12,04,19,17,6.90
2015,12,04,19,18,6.90
2015,12,04,19,19,6.90
2015,12,04,19,20,6.90
2015,12,04,19,21,6.90
2015,12,04,19,22,6.90
2015,12,04,19,23,6.90
2015,12,04,19,24,6.90
2015,12,04,19,25,6.90
2015,12,04,19,26,6.90
2015,12,04,19,27,6.90
2015,12,04,19,28,6.90
2015,12,04,19,29,6.90
2015,12,04,19,30,6.90
2015,12,04,19,31,6.90
2015,12,04,19,32,6.90
2015,12,04,19,33,6.90
2015,12,04,19,34,7.00
2015,12,04,19,35,7.00
2015,12,04,19,36,7.00
2015,12,04,19,37,7.00
2015,12,04,19,38,7.00
2015,12,04,19,39,7.00
2015,12,04,19,40,7.00
2015,12,04,19,41,7.00